Year,Month,Day,Hour,Minute,Value (Times are PST for temperature in C)
2018,05,23,00,00,13.70
2018,05,23,00,01,13.70
2018,05,23,00,02,13.60
2018,05,23,00,03,13.60
2018,05,23,00,04,13.60
2018,05,23,00,05,13.60
2018,05,23,00,06,13.60
2018,05,23,00,07,13.60
2018,05,23,00,08,13.50
2018,05,23,00,09,13.50
2018,05,23,00,10,13.50
2018,05,23,00,11,13.50
2018,05,23,00,12,13.50
2018,05,23,00,13,13.50
2018,05,23,00,14,13.50
2018,05,23,00,15,13.40
2018,05,23,00,16,13.40
2018,05,23,00,17,13.40
2018,05,23,00,18,13.40
2018,05,23,00,19,13.40
2018,05,23,00,20,13.30
2018,05,23,00,21,13.30
2018,05,23,00,22,13.30
2018,05,23,00,23,13.30
2018,05,23,00,24,13.30
2018,05,23,00,25,13.30
2018,05,23,00,26,13.20
2018,05,23,00,27,13.20
2018,05,23,00,28,13.20
2018,05,23,00,29,13.20
2018,05,23,00,30,13.20
2018,05,23,00,31,13.10
2018,05,23,00,32,13.10
2018,05,23,00,33,13.10
2018,05,23,00,34,13.10
2018,05,23,00,35,13.10
2018,05,23,00,36,13.10
2018,05,23,00,37,13.10
2018,05,23,00,38,13.00
2018,05,23,00,39,13.00
2018,05,23,00,40,13.00
2018,05,23,00,41,13.00
2018,05,23,00,42,13.00
2018,05,23,00,43,13.00
2018,05,23,00,44,13.00
2018,05,23,00,45,12.90
2018,05,23,00,46,12.90
2018,05,23,00,47,12.90
2018,05,23,00,48,12.90
2018,05,23,00,49,12.90
2018,05,23,00,50,12.90
2018,05,23,00,51,12.80
2018,05,23,00,52,12.80
2018,05,23,00,53,12.80
2018,05,23,00,54,12.80
2018,05,23,00,55,12.80
2018,05,23,00,56,12.80
2018,05,23,00,57,12.80
2018,05,23,00,58,12.70
2018,05,23,00,59,12.70
2018,05,23,01,00,12.70
2018,05,23,01,01,12.70
2018,05,23,01,02,12.70
2018,05,23,01,03,12.70
2018,05,23,01,04,12.60
2018,05,23,01,05,12.60
2018,05,23,01,06,12.60
2018,05,23,01,07,12.60
2018,05,23,01,08,12.60
2018,05,23,01,09,12.50
2018,05,23,01,10,12.50
2018,05,23,01,11,12.40
2018,05,23,01,12,12.40
2018,05,23,01,13,12.40
2018,05,23,01,14,12.40
2018,05,23,01,15,12.40
2018,05,23,01,16,12.40
2018,05,23,01,17,12.30
2018,05,23,01,18,12.30
2018,05,23,01,19,12.30
2018,05,23,01,20,12.30
2018,05,23,01,21,12.30
2018,05,23,01,22,12.20
2018,05,23,01,23,12.20
2018,05,23,01,24,12.20
2018,05,23,01,25,12.20
2018,05,23,01,26,12.20
2018,05,23,01,27,12.20
2018,05,23,01,28,12.20
2018,05,23,01,29,12.20
2018,05,23,01,30,12.20
2018,05,23,01,31,12.20
2018,05,23,01,32,12.20
2018,05,23,01,33,12.20
2018,05,23,01,34,12.10
2018,05,23,01,35,12.20
2018,05,23,01,36,12.20
2018,05,23,01,37,12.20
2018,05,23,01,38,12.10
2018,05,23,01,39,12.20
2018,05,23,01,40,12.10
2018,05,23,01,41,12.20
2018,05,23,01,42,12.20
2018,05,23,01,43,12.20
2018,05,23,01,44,12.20
2018,05,23,01,45,12.20
2018,05,23,01,46,12.20
2018,05,23,01,47,12.20
2018,05,23,01,48,12.20
2018,05,23,01,49,12.20
2018,05,23,01,50,12.10
2018,05,23,01,51,12.10
2018,05,23,01,52,12.10
2018,05,23,01,53,12.10
2018,05,23,01,54,12.10
2018,05,23,01,55,12.10
2018,05,23,01,56,12.00
2018,05,23,01,57,12.00
2018,05,23,01,58,12.00
2018,05,23,01,59,12.00
2018,05,23,02,00,11.90
2018,05,23,02,01,11.90
2018,05,23,02,02,11.90
2018,05,23,02,03,11.90
2018,05,23,02,04,11.90
2018,05,23,02,05,11.90
2018,05,23,02,06,11.90
2018,05,23,02,07,11.90
2018,05,23,02,08,11.90
2018,05,23,02,09,11.90
2018,05,23,02,10,11.80
2018,05,23,02,11,11.80
2018,05,23,02,12,11.80
2018,05,23,02,13,11.80
2018,05,23,02,14,11.80
2018,05,23,02,15,11.80
2018,05,23,02,16,11.80
2018,05,23,02,17,11.80
2018,05,23,02,18,11.80
2018,05,23,02,19,11.80
2018,05,23,02,20,11.70
2018,05,23,02,21,11.70
2018,05,23,02,22,11.70
2018,05,23,02,23,11.70
2018,05,23,02,24,11.70
2018,05,23,02,25,11.70
2018,05,23,02,26,11.70
2018,05,23,02,27,11.70
2018,05,23,02,28,11.70
2018,05,23,02,29,11.70
2018,05,23,02,30,11.70
2018,05,23,02,31,11.60
2018,05,23,02,32,11.60
2018,05,23,02,33,11.60
2018,05,23,02,34,11.60
2018,05,23,02,35,11.60
2018,05,23,02,36,11.60
2018,05,23,02,37,11.60
2018,05,23,02,38,11.60
2018,05,23,02,39,11.50
2018,05,23,02,40,11.50
2018,05,23,02,41,11.50
2018,05,23,02,42,11.50
2018,05,23,02,43,11.50
2018,05,23,02,44,11.50
2018,05,23,02,45,11.40
2018,05,23,02,46,11.40
2018,05,23,02,47,11.40
2018,05,23,02,48,11.40
2018,05,23,02,49,11.40
2018,05,23,02,50,11.40
2018,05,23,02,51,11.30
2018,05,23,02,52,11.30
2018,05,23,02,53,11.30
2018,05,23,02,54,11.30
2018,05,23,02,55,11.30
2018,05,23,02,56,11.30
2018,05,23,02,57,11.30
2018,05,23,02,58,11.30
2018,05,23,02,59,11.30
2018,05,23,03,00,11.30
2018,05,23,03,01,11.30
2018,05,23,03,02,11.30
2018,05,23,03,03,11.20
2018,05,23,03,04,11.20
2018,05,23,03,05,11.20
2018,05,23,03,06,11.20
2018,05,23,03,07,11.20
2018,05,23,03,08,11.20
2018,05,23,03,09,11.20
2018,05,23,03,10,11.20
2018,05,23,03,11,11.20
2018,05,23,03,12,11.20
2018,05,23,03,13,11.10
2018,05,23,03,14,11.10
2018,05,23,03,15,11.10
2018,05,23,03,16,11.10
2018,05,23,03,17,11.10
2018,05,23,03,18,11.10
2018,05,23,03,19,11.10
2018,05,23,03,20,11.10
2018,05,23,03,21,11.10
2018,05,23,03,22,11.10
2018,05,23,03,23,11.10
2018,05,23,03,24,11.10
2018,05,23,03,25,11.10
2018,05,23,03,26,11.10
2018,05,23,03,27,11.20
2018,05,23,03,28,11.20
2018,05,23,03,29,11.20
2018,05,23,03,30,11.20
2018,05,23,03,31,11.30
2018,05,23,03,32,11.30
2018,05,23,03,33,11.30
2018,05,23,03,34,11.30
2018,05,23,03,35,11.30
2018,05,23,03,36,11.30
2018,05,23,03,37,11.40
2018,05,23,03,38,11.40
2018,05,23,03,39,11.40
2018,05,23,03,40,11.40
2018,05,23,03,41,11.40
2018,05,23,03,42,11.40
2018,05,23,03,43,11.50
2018,05,23,03,44,11.50
2018,05,23,03,45,11.50
2018,05,23,03,46,11.50
2018,05,23,03,47,11.50
2018,05,23,03,48,11.50
2018,05,23,03,49,11.50
2018,05,23,03,50,11.50
2018,05,23,03,51,11.50
2018,05,23,03,52,11.50
2018,05,23,03,53,11.50
2018,05,23,03,54,11.40
2018,05,23,03,55,11.40
2018,05,23,03,56,11.40
2018,05,23,03,57,11.40
2018,05,23,03,58,11.40
2018,05,23,03,59,11.40
2018,05,23,04,00,11.40
2018,05,23,04,01,11.40
2018,05,23,04,02,11.40
2018,05,23,04,03,11.40
2018,05,23,04,04,11.40
2018,05,23,04,05,11.40
2018,05,23,04,06,11.40
2018,05,23,04,07,11.40
2018,05,23,04,08,11.40
2018,05,23,04,09,11.40
2018,05,23,04,10,11.40
2018,05,23,04,11,11.40
2018,05,23,04,12,11.40
2018,05,23,04,13,11.30
2018,05,23,04,14,11.30
2018,05,23,04,15,11.30
2018,05,23,04,16,11.30
2018,05,23,04,17,11.30
2018,05,23,04,18,11.30
2018,05,23,04,19,11.30
2018,05,23,04,20,11.30
2018,05,23,04,21,11.40
2018,05,23,04,22,11.40
2018,05,23,04,23,11.40
2018,05,23,04,24,11.40
2018,05,23,04,25,11.40
2018,05,23,04,26,11.50
2018,05,23,04,27,11.50
2018,05,23,04,28,11.50
2018,05,23,04,29,11.60
2018,05,23,04,30,11.60
2018,05,23,04,31,11.60
2018,05,23,04,32,11.60
2018,05,23,04,33,11.70
2018,05,23,04,34,11.70
2018,05,23,04,35,11.70
2018,05,23,04,36,11.70
2018,05,23,04,37,11.70
2018,05,23,04,38,11.70
2018,05,23,04,39,11.70
2018,05,23,04,40,11.60
2018,05,23,04,41,11.60
2018,05,23,04,42,11.60
2018,05,23,04,43,11.60
2018,05,23,04,44,11.60
2018,05,23,04,45,11.50
2018,05,23,04,46,11.60
2018,05,23,04,47,11.60
2018,05,23,04,48,11.60
2018,05,23,04,49,11.60
2018,05,23,04,50,11.60
2018,05,23,04,51,11.60
2018,05,23,04,52,11.70
2018,05,23,04,53,11.70
2018,05,23,04,54,11.60
2018,05,23,04,55,11.60
2018,05,23,04,56,11.60
2018,05,23,04,57,11.60
2018,05,23,04,58,11.60
2018,05,23,04,59,11.60
2018,05,23,05,00,11.60
2018,05,23,05,01,11.60
2018,05,23,05,02,11.50
2018,05,23,05,03,11.50
2018,05,23,05,04,11.50
2018,05,23,05,05,11.40
2018,05,23,05,06,11.40
2018,05,23,05,07,11.40
2018,05,23,05,08,11.40
2018,05,23,05,09,11.40
2018,05,23,05,10,11.40
2018,05,23,05,11,11.40
2018,05,23,05,12,11.40
2018,05,23,05,13,11.40
2018,05,23,05,14,11.40
2018,05,23,05,15,11.40
2018,05,23,05,16,11.40
2018,05,23,05,17,11.40
2018,05,23,05,18,11.40
2018,05,23,05,19,11.40
2018,05,23,05,20,11.40
2018,05,23,05,21,11.40
2018,05,23,05,22,11.40
2018,05,23,05,23,11.40
2018,05,23,05,24,11.40
2018,05,23,05,25,11.40
2018,05,23,05,26,11.40
2018,05,23,05,27,11.40
2018,05,23,05,28,11.40
2018,05,23,05,29,11.30
2018,05,23,05,30,11.30
2018,05,23,05,31,11.30
2018,05,23,05,32,11.30
2018,05,23,05,33,11.30
2018,05,23,05,34,11.30
2018,05,23,05,35,11.40
2018,05,23,05,36,11.40
2018,05,23,05,37,11.40
2018,05,23,05,38,11.40
2018,05,23,05,39,11.40
2018,05,23,05,40,11.40
2018,05,23,05,41,11.40
2018,05,23,05,42,11.40
2018,05,23,05,43,11.40
2018,05,23,05,44,11.50
2018,05,23,05,45,11.50
2018,05,23,05,46,11.50
2018,05,23,05,47,11.60
2018,05,23,05,48,11.60
2018,05,23,05,49,11.60
2018,05,23,05,50,11.60
2018,05,23,05,51,11.60
2018,05,23,05,52,11.70
2018,05,23,05,53,11.70
2018,05,23,05,54,11.70
2018,05,23,05,55,11.70
2018,05,23,05,56,11.70
2018,05,23,05,57,11.70
2018,05,23,05,58,11.70
2018,05,23,05,59,11.70
2018,05,23,06,00,11.80
2018,05,23,06,01,11.80
2018,05,23,06,02,11.80
2018,05,23,06,03,11.80
2018,05,23,06,04,11.80
2018,05,23,06,05,11.90
2018,05,23,06,06,11.90
2018,05,23,06,07,11.90
2018,05,23,06,08,12.00
2018,05,23,06,09,12.00
2018,05,23,06,10,12.00
2018,05,23,06,11,12.10
2018,05,23,06,12,12.20
2018,05,23,06,13,12.20
2018,05,23,06,14,12.20
2018,05,23,06,15,12.30
2018,05,23,06,16,12.30
2018,05,23,06,17,12.30
2018,05,23,06,18,12.40
2018,05,23,06,19,12.40
2018,05,23,06,20,12.40
2018,05,23,06,21,12.50
2018,05,23,06,22,12.50
2018,05,23,06,23,12.60
2018,05,23,06,24,12.60
2018,05,23,06,25,12.60
2018,05,23,06,26,12.60
2018,05,23,06,27,12.70
2018,05,23,06,28,12.70
2018,05,23,06,29,12.70
2018,05,23,06,30,12.70
2018,05,23,06,31,12.80
2018,05,23,06,32,12.80
2018,05,23,06,33,12.80
2018,05,23,06,34,12.90
2018,05,23,06,35,12.90
2018,05,23,06,36,12.90
2018,05,23,06,37,13.00
2018,05,23,06,38,13.10
2018,05,23,06,39,13.10
2018,05,23,06,40,13.20
2018,05,23,06,41,13.20
2018,05,23,06,42,13.30
2018,05,23,06,43,13.30
2018,05,23,06,44,13.40
2018,05,23,06,45,13.50
2018,05,23,06,46,13.50
2018,05,23,06,47,13.60
2018,05,23,06,48,13.60
2018,05,23,06,49,13.70
2018,05,23,06,50,13.80
2018,05,23,06,51,13.80
2018,05,23,06,52,13.90
2018,05,23,06,53,14.00
2018,05,23,06,54,14.10
2018,05,23,06,55,14.20
2018,05,23,06,56,14.20
2018,05,23,06,57,14.30
2018,05,23,06,58,14.40
2018,05,23,06,59,14.40
2018,05,23,07,00,14.50
2018,05,23,07,01,14.60
2018,05,23,07,02,14.70
2018,05,23,07,03,14.70
2018,05,23,07,04,14.80
2018,05,23,07,05,14.80
2018,05,23,07,06,14.90
2018,05,23,07,07,14.90
2018,05,23,07,08,15.00
2018,05,23,07,09,15.10
2018,05,23,07,10,15.10
2018,05,23,07,11,15.20
2018,05,23,07,12,15.20
2018,05,23,07,13,15.30
2018,05,23,07,14,15.30
2018,05,23,07,15,15.30
2018,05,23,07,16,15.40
2018,05,23,07,17,15.50
2018,05,23,07,18,15.60
2018,05,23,07,19,15.60
2018,05,23,07,20,15.70
2018,05,23,07,21,15.80
2018,05,23,07,22,16.00
2018,05,23,07,23,16.10
2018,05,23,07,24,16.20
2018,05,23,07,25,16.30
2018,05,23,07,26,16.50
2018,05,23,07,27,16.60
2018,05,23,07,28,16.70
2018,05,23,07,29,16.80
2018,05,23,07,30,16.80
2018,05,23,07,31,16.90
2018,05,23,07,32,16.90
2018,05,23,07,33,16.90
2018,05,23,07,34,17.00
2018,05,23,07,35,17.00
2018,05,23,07,36,17.10
2018,05,23,07,37,17.10
2018,05,23,07,38,17.20
2018,05,23,07,39,17.20
2018,05,23,07,40,17.20
2018,05,23,07,41,17.30
2018,05,23,07,42,17.40
2018,05,23,07,43,17.50
2018,05,23,07,44,17.60
2018,05,23,07,45,17.70
2018,05,23,07,46,17.80
2018,05,23,07,47,17.90
2018,05,23,07,48,17.90
2018,05,23,07,49,18.00
2018,05,23,07,50,18.10
2018,05,23,07,51,18.20
2018,05,23,07,52,18.20
2018,05,23,07,53,18.30
2018,05,23,07,54,18.40
2018,05,23,07,55,18.50
2018,05,23,07,56,18.60
2018,05,23,07,57,18.60
2018,05,23,07,58,18.60
2018,05,23,07,59,18.50
2018,05,23,08,00,18.50
2018,05,23,08,01,18.40
2018,05,23,08,02,18.40
2018,05,23,08,03,18.40
2018,05,23,08,04,18.40
2018,05,23,08,05,18.40
2018,05,23,08,06,18.50
2018,05,23,08,07,18.50
2018,05,23,08,08,18.50
2018,05,23,08,09,18.50
2018,05,23,08,10,18.60
2018,05,23,08,11,18.60
2018,05,23,08,12,18.60
2018,05,23,08,13,18.60
2018,05,23,08,14,18.60
2018,05,23,08,15,18.60
2018,05,23,08,16,18.60
2018,05,23,08,17,18.60
2018,05,23,08,18,18.60
2018,05,23,08,19,18.60
2018,05,23,08,20,18.60
2018,05,23,08,21,18.70
2018,05,23,08,22,18.70
2018,05,23,08,23,18.70
2018,05,23,08,24,18.80
2018,05,23,08,25,18.90
2018,05,23,08,26,18.90
2018,05,23,08,27,19.00
2018,05,23,08,28,19.10
2018,05,23,08,29,19.10
2018,05,23,08,30,19.10
2018,05,23,08,31,19.20
2018,05,23,08,32,19.20
2018,05,23,08,33,19.30
2018,05,23,08,34,19.30
2018,05,23,08,35,19.40
2018,05,23,08,36,19.40
2018,05,23,08,37,19.50
2018,05,23,08,38,19.50
2018,05,23,08,39,19.60
2018,05,23,08,40,19.60
2018,05,23,08,41,19.70
2018,05,23,08,42,19.80
2018,05,23,08,43,19.80
2018,05,23,08,44,19.90
2018,05,23,08,45,20.00
2018,05,23,08,46,20.00
2018,05,23,08,47,20.10
2018,05,23,08,48,20.20
2018,05,23,08,49,20.20
2018,05,23,08,50,20.20
2018,05,23,08,51,20.20
2018,05,23,08,52,20.30
2018,05,23,08,53,20.30
2018,05,23,08,54,20.30
2018,05,23,08,55,20.30
2018,05,23,08,56,20.30
2018,05,23,08,57,20.30
2018,05,23,08,58,20.30
2018,05,23,08,59,20.30
2018,05,23,09,00,20.30
2018,05,23,09,01,20.30
2018,05,23,09,02,20.30
2018,05,23,09,03,20.30
2018,05,23,09,04,20.30
2018,05,23,09,05,20.30
2018,05,23,09,06,20.30
2018,05,23,09,07,20.30
2018,05,23,09,08,20.30
2018,05,23,09,09,20.30
2018,05,23,09,10,20.30
2018,05,23,09,11,20.40
2018,05,23,09,12,20.40
2018,05,23,09,13,20.40
2018,05,23,09,14,20.50
2018,05,23,09,15,20.50
2018,05,23,09,16,20.50
2018,05,23,09,17,20.40
2018,05,23,09,18,20.40
2018,05,23,09,19,20.40
2018,05,23,09,20,20.40
2018,05,23,09,21,20.40
2018,05,23,09,22,20.50
2018,05,23,09,23,20.50
2018,05,23,09,24,20.60
2018,05,23,09,25,20.70
2018,05,23,09,26,20.70
2018,05,23,09,27,20.70
2018,05,23,09,28,20.70
2018,05,23,09,29,20.60
2018,05,23,09,30,20.50
2018,05,23,09,31,20.50
2018,05,23,09,32,20.50
2018,05,23,09,33,20.50
2018,05,23,09,34,20.60
2018,05,23,09,35,20.60
2018,05,23,09,36,20.50
2018,05,23,09,37,20.50
2018,05,23,09,38,20.50
2018,05,23,09,39,20.50
2018,05,23,09,40,20.60
2018,05,23,09,41,20.60
2018,05,23,09,42,20.70
2018,05,23,09,43,20.70
2018,05,23,09,44,20.70
2018,05,23,09,45,20.70
2018,05,23,09,46,20.60
2018,05,23,09,47,20.60
2018,05,23,09,48,20.60
2018,05,23,09,49,20.60
2018,05,23,09,50,20.60
2018,05,23,09,51,20.60
2018,05,23,09,52,20.70
2018,05,23,09,53,20.70
2018,05,23,09,54,20.70
2018,05,23,09,55,20.80
2018,05,23,09,56,20.80
2018,05,23,09,57,20.80
2018,05,23,09,58,20.80
2018,05,23,09,59,20.80
2018,05,23,10,00,20.80
2018,05,23,10,01,20.80
2018,05,23,10,02,20.90
2018,05,23,10,03,20.90
2018,05,23,10,04,20.90
2018,05,23,10,05,21.00
2018,05,23,10,06,21.00
2018,05,23,10,07,21.00
2018,05,23,10,08,21.00
2018,05,23,10,09,21.10
2018,05,23,10,10,21.10
2018,05,23,10,11,21.00
2018,05,23,10,12,21.00
2018,05,23,10,13,20.90
2018,05,23,10,14,20.90
2018,05,23,10,15,20.90
2018,05,23,10,16,20.90
2018,05,23,10,17,21.00
2018,05,23,10,18,21.10
2018,05,23,10,19,21.20
2018,05,23,10,20,21.30
2018,05,23,10,21,21.30
2018,05,23,10,22,21.20
2018,05,23,10,23,21.20
2018,05,23,10,24,21.10
2018,05,23,10,25,21.20
2018,05,23,10,26,21.20
2018,05,23,10,27,21.20
2018,05,23,10,28,21.20
2018,05,23,10,29,21.30
2018,05,23,10,30,21.40
2018,05,23,10,31,21.40
2018,05,23,10,32,21.40
2018,05,23,10,33,21.40
2018,05,23,10,34,21.40
2018,05,23,10,35,21.40
2018,05,23,10,36,21.50
2018,05,23,10,37,21.50
2018,05,23,10,38,21.60
2018,05,23,10,39,21.60
2018,05,23,10,40,21.70
2018,05,23,10,41,21.70
2018,05,23,10,42,21.70
2018,05,23,10,43,21.60
2018,05,23,10,44,21.60
2018,05,23,10,45,21.60
2018,05,23,10,46,21.70
2018,05,23,10,47,21.70
2018,05,23,10,48,21.70
2018,05,23,10,49,21.70
2018,05,23,10,50,21.70
2018,05,23,10,51,21.70
2018,05,23,10,52,21.70
2018,05,23,10,53,21.80
2018,05,23,10,54,21.80
2018,05,23,10,55,21.80
2018,05,23,10,56,21.90
2018,05,23,10,57,21.90
2018,05,23,10,58,21.90
2018,05,23,10,59,22.00
2018,05,23,11,00,22.00
2018,05,23,11,01,22.10
2018,05,23,11,02,22.10
2018,05,23,11,03,22.20
2018,05,23,11,04,22.20
2018,05,23,11,05,22.20
2018,05,23,11,06,22.30
2018,05,23,11,07,22.40
2018,05,23,11,08,22.40
2018,05,23,11,09,22.40
2018,05,23,11,10,22.40
2018,05,23,11,11,22.50
2018,05,23,11,12,22.50
2018,05,23,11,13,22.50
2018,05,23,11,14,22.50
2018,05,23,11,15,22.50
2018,05,23,11,16,22.50
2018,05,23,11,17,22.50
2018,05,23,11,18,22.50
2018,05,23,11,19,22.50
2018,05,23,11,20,22.50
2018,05,23,11,21,22.50
2018,05,23,11,22,22.50
2018,05,23,11,23,22.60
2018,05,23,11,24,22.60
2018,05,23,11,25,22.60
2018,05,23,11,26,22.60
2018,05,23,11,27,22.70
2018,05,23,11,28,22.70
2018,05,23,11,29,22.70
2018,05,23,11,30,22.70
2018,05,23,11,31,22.70
2018,05,23,11,32,22.70
2018,05,23,11,33,22.70
2018,05,23,11,34,22.70
2018,05,23,11,35,22.70
2018,05,23,11,36,22.70
2018,05,23,11,37,22.70
2018,05,23,11,38,22.60
2018,05,23,11,39,22.60
2018,05,23,11,40,22.70
2018,05,23,11,41,22.60
2018,05,23,11,42,22.60
2018,05,23,11,43,22.60
2018,05,23,11,44,22.50
2018,05,23,11,45,22.50
2018,05,23,11,46,22.60
2018,05,23,11,47,22.70
2018,05,23,11,48,22.80
2018,05,23,11,49,22.80
2018,05,23,11,50,22.90
2018,05,23,11,51,23.00
2018,05,23,11,52,23.10
2018,05,23,11,53,23.10
2018,05,23,11,54,23.10
2018,05,23,11,55,23.10
2018,05,23,11,56,23.10
2018,05,23,11,57,23.00
2018,05,23,11,58,23.00
2018,05,23,11,59,22.90
2018,05,23,12,00,23.00
2018,05,23,12,01,23.00
2018,05,23,12,02,23.10
2018,05,23,12,03,23.20
2018,05,23,12,04,23.20
2018,05,23,12,05,23.30
2018,05,23,12,06,23.30
2018,05,23,12,07,23.30
2018,05,23,12,08,23.30
2018,05,23,12,09,23.30
2018,05,23,12,10,23.20
2018,05,23,12,11,23.20
2018,05,23,12,12,23.20
2018,05,23,12,13,23.20
2018,05,23,12,14,23.20
2018,05,23,12,15,23.20
2018,05,23,12,16,23.20
2018,05,23,12,17,23.30
2018,05,23,12,18,23.30
2018,05,23,12,19,23.30
2018,05,23,12,20,23.40
2018,05,23,12,21,23.40
2018,05,23,12,22,23.40
2018,05,23,12,23,23.50
2018,05,23,12,24,23.50
2018,05,23,12,25,23.60
2018,05,23,12,26,23.60
2018,05,23,12,27,23.70
2018,05,23,12,28,23.80
2018,05,23,12,29,23.90
2018,05,23,12,30,23.90
2018,05,23,12,31,23.90
2018,05,23,12,32,24.00
2018,05,23,12,33,24.00
2018,05,23,12,34,24.00
2018,05,23,12,35,24.00
2018,05,23,12,36,24.00
2018,05,23,12,37,24.00
2018,05,23,12,38,24.00
2018,05,23,12,39,23.90
2018,05,23,12,40,23.90
2018,05,23,12,41,23.90
2018,05,23,12,42,23.90
2018,05,23,12,43,23.90
2018,05,23,12,44,23.80
2018,05,23,12,45,23.80
2018,05,23,12,46,23.80
2018,05,23,12,47,23.60
2018,05,23,12,48,23.60
2018,05,23,12,49,23.50
2018,05,23,12,50,23.50
2018,05,23,12,51,23.60
2018,05,23,12,52,23.70
2018,05,23,12,53,23.80
2018,05,23,12,54,23.80
2018,05,23,12,55,23.90
2018,05,23,12,56,24.00
2018,05,23,12,57,24.00
2018,05,23,12,58,24.10
2018,05,23,12,59,24.10
2018,05,23,13,00,24.20
2018,05,23,13,01,24.20
2018,05,23,13,02,24.20
2018,05,23,13,03,24.20
2018,05,23,13,04,24.20
2018,05,23,13,05,24.30
2018,05,23,13,06,24.30
2018,05,23,13,07,24.30
2018,05,23,13,08,24.30
2018,05,23,13,09,24.30
2018,05,23,13,10,24.30
2018,05,23,13,11,24.20
2018,05,23,13,12,24.20
2018,05,23,13,13,24.20
2018,05,23,13,14,24.20
2018,05,23,13,15,24.20
2018,05,23,13,16,24.10
2018,05,23,13,17,24.00
2018,05,23,13,18,23.90
2018,05,23,13,19,23.90
2018,05,23,13,20,24.00
2018,05,23,13,21,24.10
2018,05,23,13,22,24.10
2018,05,23,13,23,24.10
2018,05,23,13,24,24.10
2018,05,23,13,25,24.00
2018,05,23,13,26,24.00
2018,05,23,13,27,24.00
2018,05,23,13,28,24.00
2018,05,23,13,29,23.90
2018,05,23,13,30,23.90
2018,05,23,13,31,23.90
2018,05,23,13,32,23.80
2018,05,23,13,33,23.90
2018,05,23,13,34,23.90
2018,05,23,13,35,23.90
2018,05,23,13,36,23.90
2018,05,23,13,37,23.90
2018,05,23,13,38,23.80
2018,05,23,13,39,23.80
2018,05,23,13,40,23.80
2018,05,23,13,41,23.80
2018,05,23,13,42,23.80
2018,05,23,13,43,23.80
2018,05,23,13,44,23.90
2018,05,23,13,45,23.90
2018,05,23,13,46,23.90
2018,05,23,13,47,23.90
2018,05,23,13,48,24.00
2018,05,23,13,49,24.00
2018,05,23,13,50,24.10
2018,05,23,13,51,24.10
2018,05,23,13,52,24.20
2018,05,23,13,53,24.20
2018,05,23,13,54,24.20
2018,05,23,13,55,24.20
2018,05,23,13,56,24.20
2018,05,23,13,57,24.10
2018,05,23,13,58,24.10
2018,05,23,13,59,24.10
2018,05,23,14,00,24.00
2018,05,23,14,01,24.00
2018,05,23,14,02,23.90
2018,05,23,14,03,23.90
2018,05,23,14,06,23.90
2018,05,23,14,07,23.80
2018,05,23,14,08,23.80
2018,05,23,14,09,23.80
2018,05,23,14,10,23.80
2018,05,23,14,11,23.90
2018,05,23,14,12,23.90
2018,05,23,14,13,24.00
2018,05,23,14,14,24.00
2018,05,23,14,15,24.10
2018,05,23,14,16,24.10
2018,05,23,14,17,24.10
2018,05,23,14,18,24.00
2018,05,23,14,19,23.90
2018,05,23,14,20,23.80
2018,05,23,14,21,23.70
2018,05,23,14,22,23.70
2018,05,23,14,23,23.70
2018,05,23,14,24,23.70
2018,05,23,14,25,23.80
2018,05,23,14,26,23.80
2018,05,23,14,27,23.80
2018,05,23,14,28,23.90
2018,05,23,14,29,23.90
2018,05,23,14,30,23.80
2018,05,23,14,31,23.80
2018,05,23,14,32,23.80
2018,05,23,14,33,23.80
2018,05,23,14,34,23.80
2018,05,23,14,35,23.80
2018,05,23,14,36,23.80
2018,05,23,14,37,23.80
2018,05,23,14,38,23.80
2018,05,23,14,39,23.80
2018,05,23,14,40,23.80
2018,05,23,14,41,23.80
2018,05,23,14,42,23.80
2018,05,23,14,43,23.80
2018,05,23,14,44,23.90
2018,05,23,14,45,23.90
2018,05,23,14,46,24.00
2018,05,23,14,47,24.10
2018,05,23,14,48,24.10
2018,05,23,14,49,24.10
2018,05,23,14,50,24.10
2018,05,23,14,51,24.20
2018,05,23,14,52,24.20
2018,05,23,14,53,24.20
2018,05,23,14,54,24.30
2018,05,23,14,55,24.30
2018,05,23,14,56,24.30
2018,05,23,14,57,24.30
2018,05,23,14,58,24.30
2018,05,23,14,59,24.20
2018,05,23,15,00,24.20
2018,05,23,15,01,24.30
2018,05,23,15,02,24.30
2018,05,23,15,03,24.30
2018,05,23,15,04,24.40
2018,05,23,15,05,24.40
2018,05,23,15,06,24.50
2018,05,23,15,07,24.50
2018,05,23,15,08,24.50
2018,05,23,15,09,24.50
2018,05,23,15,10,24.50
2018,05,23,15,11,24.50
2018,05,23,15,12,24.50
2018,05,23,15,13,24.50
2018,05,23,15,14,24.60
2018,05,23,15,15,24.60
2018,05,23,15,16,24.70
2018,05,23,15,17,24.70
2018,05,23,15,18,24.80
2018,05,23,15,19,24.80
2018,05,23,15,20,24.80
2018,05,23,15,21,24.90
2018,05,23,15,22,24.90
2018,05,23,15,23,24.90
2018,05,23,15,24,24.90
2018,05,23,15,25,24.90
2018,05,23,15,26,24.90
2018,05,23,15,27,24.90
2018,05,23,15,28,24.80
2018,05,23,15,29,24.80
2018,05,23,15,30,24.80
2018,05,23,15,31,24.80
2018,05,23,15,32,24.80
2018,05,23,15,33,24.80
2018,05,23,15,34,24.80
2018,05,23,15,35,24.80
2018,05,23,15,36,24.80
2018,05,23,15,37,24.70
2018,05,23,15,38,24.70
2018,05,23,15,39,24.70
2018,05,23,15,40,24.70
2018,05,23,15,41,24.70
2018,05,23,15,42,24.70
2018,05,23,15,43,24.60
2018,05,23,15,44,24.70
2018,05,23,15,45,24.70
2018,05,23,15,46,24.80
2018,05,23,15,47,24.80
2018,05,23,15,48,24.90
2018,05,23,15,49,25.00
2018,05,23,15,50,25.00
2018,05,23,15,51,25.10
2018,05,23,15,52,25.10
2018,05,23,15,53,25.10
2018,05,23,15,54,25.10
2018,05,23,15,55,25.10
2018,05,23,15,56,25.20
2018,05,23,15,57,25.20
2018,05,23,15,58,25.20
2018,05,23,15,59,25.30
2018,05,23,16,00,25.30
2018,05,23,16,01,25.30
2018,05,23,16,02,25.30
2018,05,23,16,03,25.40
2018,05,23,16,04,25.40
2018,05,23,16,05,25.50
2018,05,23,16,06,25.60
2018,05,23,16,07,25.50
2018,05,23,16,08,25.60
2018,05,23,16,09,25.60
2018,05,23,16,10,25.50
2018,05,23,16,11,25.50
2018,05,23,16,12,25.60
2018,05,23,16,13,25.60
2018,05,23,16,14,25.60
2018,05,23,16,15,25.70
2018,05,23,16,16,25.80
2018,05,23,16,17,25.80
2018,05,23,16,18,25.90
2018,05,23,16,19,25.90
2018,05,23,16,20,26.00
2018,05,23,16,21,26.00
2018,05,23,16,22,25.90
2018,05,23,16,23,26.00
2018,05,23,16,24,26.00
2018,05,23,16,25,26.10
2018,05,23,16,26,26.20
2018,05,23,16,27,26.20
2018,05,23,16,28,26.30
2018,05,23,16,29,26.30
2018,05,23,16,30,26.40
2018,05,23,16,31,26.40
2018,05,23,16,32,26.50
2018,05,23,16,33,26.60
2018,05,23,16,34,26.60
2018,05,23,16,35,26.60
2018,05,23,16,36,26.70
2018,05,23,16,37,26.60
2018,05,23,16,38,26.60
2018,05,23,16,39,26.60
2018,05,23,16,40,26.50
2018,05,23,16,41,26.50
2018,05,23,16,42,26.40
2018,05,23,16,43,26.40
2018,05,23,16,44,26.40
2018,05,23,16,45,26.40
2018,05,23,16,46,26.40
2018,05,23,16,47,26.50
2018,05,23,16,48,26.50
2018,05,23,16,49,26.40
2018,05,23,16,50,26.40
2018,05,23,16,51,26.40
2018,05,23,16,52,26.50
2018,05,23,16,53,26.50
2018,05,23,16,54,26.60
2018,05,23,16,55,26.60
2018,05,23,16,56,26.50
2018,05,23,16,57,26.50
2018,05,23,16,58,26.60
2018,05,23,16,59,26.60
2018,05,23,17,00,26.60
2018,05,23,17,01,26.60
2018,05,23,17,02,26.50
2018,05,23,17,03,26.40
2018,05,23,17,04,26.40
2018,05,23,17,05,26.30
2018,05,23,17,06,26.20
2018,05,23,17,07,26.20
2018,05,23,17,08,26.20
2018,05,23,17,09,26.20
2018,05,23,17,10,26.20
2018,05,23,17,11,26.20
2018,05,23,17,12,26.20
2018,05,23,17,13,26.20
2018,05,23,17,14,26.20
2018,05,23,17,15,26.20
2018,05,23,17,16,26.20
2018,05,23,17,17,26.10
2018,05,23,17,18,26.10
2018,05,23,17,19,26.10
2018,05,23,17,20,26.00
2018,05,23,17,21,26.00